Mount Shasta, CA

2:07 AM PDT on July 23, 2017 (GMT -0700)
Mount Shasta

Weather History for KMHS - July, 2013

Change the Weather History Date:

Wednesday, July 3, 2013

  Actual Average Record
Temperature  
Mean Temperature 78 °F 66 °F  
Max Temperature 97 °F 83 °F 99 °F (1991)
Min Temperature 59 °F 49 °F 36 °F (1990)
Degree Days  
Heating Degree Days 0 2  
Month to date heating degree days 0 6  
Since 1 June heating degree days 87 148  
Since 1 July heating degree days 0 6  
Cooling Degree Days 13 3  
Month to date cooling degree days 42 9  
Year to date cooling degree days 150 54  
Since 1 June cooling degree days 141 46  
Growing Degree Days 28 (Base 50)    
Moisture  
Dew Point 57 °F    
Average Humidity 53    
Maximum Humidity 90    
Minimum Humidity 25    
Precipitation  
Precipitation T in 0.02 in 0.60 in (1920)
Month to date precipitation 0.05 0.06  
Year to date precipitation 7.13 26.66  
Sea Level Pressure  
Sea Level Pressure 30.02 in    
Wind  
Wind Speed 4 mph (NW)    
Max Wind Speed 12 mph    
Max Gust Speed 21 mph    
Visibility 10 miles    
Events      
T = Trace of Precipitation, MM = Missing Value Source: NWS Daily Summary

Daily Weather History Graph

Daily Weather History Graph

Search for Another Location

Airport or City:

Trip Planner

Search our weather history database for the weather conditions in past years. The results will help you decide how hot, cold, wet, or windy it might be!

Date:

Astronomy

Jul. 03, 2013 Rise Set
Actual Time 5:41 AM PDT 8:45 PM PDT
Civil Twilight 5:07 AM PDT 9:19 PM PDT
Nautical Twilight 4:24 AM PDT 10:02 PM PDT
Astronomical Twilight 3:33 AM PDT 10:52 PM PDT
Moon 2:23 AM PDT (7/3) 5:00 PM PDT (7/3)
Length of Visible Light 16h 11m
Length of Day
15h 04m
Waning Crescent, 17% of the Moon is Illuminated
Jul 3
Waning Crescent
Jul 8
New
Jul 15
First Quarter
Jul 22
Full
Jul 29
Last Quarter

Hourly Weather History & Observations

Time (PDT) Temp. Heat Index Dew Point Humidity Pressure Visibility Wind Dir Wind Speed Gust Speed Precip Events Conditions
12:56 AM 68.0 °F - 63.0 °F 84% 30.06 in 10.0 mi Calm Calm - N/A   Clear
1:56 AM 66.9 °F - 62.1 °F 84% 30.07 in 10.0 mi Calm Calm - N/A   Clear
2:56 AM 63.0 °F - 59.0 °F 87% 30.07 in 10.0 mi Calm Calm - N/A   Clear
3:56 AM 61.0 °F - 57.0 °F 87% 30.06 in 10.0 mi Calm Calm - N/A   Clear
4:56 AM 60.1 °F - 55.9 °F 86% 30.06 in 10.0 mi Calm Calm - N/A   Clear
5:56 AM 61.0 °F - 55.9 °F 83% 30.07 in 10.0 mi Calm Calm - N/A   Clear
6:56 AM 63.0 °F - 57.9 °F 84% 30.07 in 10.0 mi Calm Calm - N/A   Clear
7:56 AM 72.0 °F - 62.1 °F 71% 30.06 in 10.0 mi Calm Calm - N/A   Clear
8:56 AM 79.0 °F - 64.0 °F 60% 30.05 in 10.0 mi Variable 3.5 mph - N/A   Clear
9:56 AM 82.9 °F 83.7 °F 62.1 °F 49% 30.07 in 10.0 mi Variable 5.8 mph - N/A   Clear
10:56 AM 87.1 °F 87.0 °F 61.0 °F 41% 30.05 in 10.0 mi Calm Calm - N/A   Clear
11:56 AM 91.0 °F 91.5 °F 62.1 °F 38% 30.03 in 10.0 mi Calm Calm - N/A   Clear
12:56 PM 93.0 °F 93.8 °F 62.1 °F 36% 30.01 in 10.0 mi Variable 4.6 mph - N/A   Clear
1:56 PM 96.1 °F 95.2 °F 57.9 °F 28% 29.99 in 10.0 mi NNW 6.9 mph - N/A   Clear
2:56 PM 97.0 °F 95.0 °F 55.0 °F 24% 29.96 in 10.0 mi NW 8.1 mph - N/A   Clear
3:56 PM 90.0 °F 87.9 °F 55.0 °F 30% 29.96 in 10.0 mi NNW 5.8 mph - N/A   Clear
4:56 PM 87.1 °F 86.5 °F 59.0 °F 39% 29.96 in 10.0 mi NW 3.5 mph - N/A   Clear
5:56 PM 87.1 °F 84.9 °F 53.1 °F 31% 29.99 in 10.0 mi NW 6.9 mph - N/A   Clear
6:56 PM 84.9 °F - 51.1 °F 31% 30.01 in 10.0 mi Variable 4.6 mph - N/A   Partly Cloudy
7:56 PM 82.9 °F - 51.1 °F 33% 29.99 in 10.0 mi Variable 6.9 mph 20.7 mph N/A   Partly Cloudy
8:56 PM 79.0 °F - 50.0 °F 36% 29.98 in 10.0 mi Variable 6.9 mph 20.7 mph N/A   Clear
9:56 PM 77.0 °F - 51.1 °F 40% 30.00 in 10.0 mi Variable 6.9 mph - N/A   Clear
10:56 PM 75.0 °F - 52.0 °F 44% 29.99 in 10.0 mi Variable 6.9 mph - 0.00 in   Clear
11:56 PM 75.9 °F - 51.1 °F 42% 29.98 in 10.0 mi Variable 5.8 mph - N/A   Clear